Home > Time Zones > World Clock > Weather > Iran > Ahvaz > Past weeks

Flag for Iran Weather past 2 weeks in Ahvaz, Iran

Now
95 °F

Clear.


Feels Like: 93 °F
Forecast: 89 / 119 °F
Wind: No wind

Location: Ahwaz

Current Time: Jul 12, 2014 at 4:32:31 AM

Latest Report: Jul 12, 2014 at 3:30 AM


Visibility: 10 mi

Pressure: 29.47 "Hg

Humidity: 26%

Dew point: 55 °F

Location of AhvazLocation

Historic Weather in Ahvaz — Graph

°F

Ahvaz temperature yesterday

Maximum temperature yesterday: 113 °F (at 4:30 PM)
Minimum temperature yesterday: 86 °F (at 6:30 AM)
Average temperature yesterday: 101 °F

Past Weeks' High & Low Weather Summary

 TemperatureHumidityPressure
High118 °F (Jun 30, 4:30 PM)79% (Jul 5, 6:30 AM)29.59 "Hg (Jul 5, 6:30 AM)
Low79 °F (Jun 28, 6:30 AM)8% (Jul 3, 3:30 PM)29.36 "Hg (Jul 3, 3:30 PM)
Average101 °F24%29.48 "Hg
* Reported Jun 27 3:30 AM — Jul 12 3:30 AM, Ahvaz, Weather by CustomWeather, © 2014

Note: Actual official high and low records may vary slightly from our data, if they occured in-between our weather recording intervals... More about our weather records

Advertising

Ahvaz weather history for previous 24 hours

 ConditionsComfort  
Time TempWeatherWind HumidityBarometerVisibility
3:30 AM
Jul 12
95 °FClear.No wind26%29.47 "Hg10 mi
2:30 AM95 °FClear.5 mph25%29.47 "Hg10 mi
1:30 AM95 °FClear.7 mph26%29.47 "Hg10 mi
12:55 AM90 °FClear.No wind41%29.47 "Hg10 mi
12:30 AM90 °FClear.No wind41%29.47 "Hg10 mi
11:55 PM
Jul 11
91 °FClear.No wind36%29.47 "Hg10 mi
11:30 PM93 °FClear.No wind34%29.47 "Hg10 mi
10:55 PM95 °FClear.No wind30%29.47 "Hg10 mi
10:30 PM97 °FClear.5 mph30%29.47 "Hg10 mi
9:55 PM97 °FClear.No wind27%29.47 "Hg10 mi
9:30 PM97 °FSunny.No wind27%29.47 "Hg10 mi
8:55 PM100 °FSunny.No wind24%29.45 "Hg10 mi
8:30 PM102 °FSunny.5 mph21%29.45 "Hg10 mi
7:55 PM108 °FSunny.5 mph19%29.45 "Hg10 mi
7:30 PM109 °FSunny.5 mph14%29.45 "Hg10 mi
6:55 PM109 °FSunny.5 mph17%29.45 "Hg10 mi
6:30 PM111 °FSunny.5 mph15%29.45 "Hg10 mi
5:55 PM111 °FSunny.5 mph15%29.45 "Hg10 mi
5:30 PM111 °FSunny.5 mph15%29.45 "Hg10 mi
4:55 PM111 °FSunny.No wind15%29.47 "Hg10 mi
4:30 PM113 °FSunny.5 mph14%29.47 "Hg10 mi
3:55 PM111 °FSunny.5 mph13%29.47 "Hg10 mi
3:30 PM109 °FSunny.5 mph15%29.47 "Hg10 mi
2:55 PM109 °FSunny.No wind15%29.47 "Hg10 mi
2:30 PM109 °FSunny.No wind15%29.47 "Hg10 mi
2:00 PM109 °FSunny.No wind15%29.50 "Hg10 mi
1:30 PM109 °FSunny.No wind16%29.50 "Hg10 mi
1:00 PM108 °FSunny.5 mph18%29.50 "Hg10 mi
12:30 PM108 °FSunny.5 mph18%29.50 "Hg10 mi
12:00 PM106 °FSunny.5 mph20%29.50 "Hg10 mi
11:30 AM102 °FSunny.5 mph23%29.50 "Hg10 mi
11:00 AM100 °FSunny.5 mph25%29.50 "Hg10 mi
10:30 AM99 °FSunny.5 mph27%29.50 "Hg10 mi
10:00 AM99 °FSunny.No wind25%29.50 "Hg10 mi
9:30 AM95 °FSunny.No wind30%29.50 "Hg10 mi
9:00 AM93 °FSunny.No wind30%29.50 "Hg10 mi
8:30 AM91 °FSunny.No wind30%29.50 "Hg10 mi
8:00 AM90 °FSunny.N/A31%29.47 "Hg10 mi
7:30 AM88 °FClear.5 mph33%29.47 "Hg10 mi
6:30 AM86 °FClear.5 mph40%29.47 "Hg10 mi
5:30 AM90 °FClear.No wind27%29.47 "Hg10 mi
4:30 AM91 °FClear.5 mph26%29.47 "Hg10 mi
Weather by CustomWeather, © 2014

See weather overviewHow to use our weather pages